Temp
18 18 19 19 19 18 18 19 19 19 19 19 19 19 19 19 19 19 19 19 17 16 16 16 16 16 16 16 16 16 16 15 15
19 19 19 19 18 18 18 19 19 19 19 19 19 19 19 19 19 19 19 18 17 16 16 16 16 16 16 16 15 15 15 15 15
19 19 19 18 18 18 18 19 19 19 19 20 19 19 19 19 19 19 19 18 17 16 17 16 16 16 16 16 16 16 16 16 16
19 19 19 18 18 18 18 19 19 19 19 19 20 19 19 19 19 19 19 19 17 18 18 17 17 17 17 17 17 16 16 16 16
19 19 19 19 18 18 18 19 19 19 19 19 19 20 19 19 19 19 19 19 18 18 18 17 17 17 17 17 17 17 17 16 16
19 19 19 19 19 19 18 18 19 19 19 19 19 20 19 19 19 19 19 19 18 18 18 17 17 17 17 17 17 17 16 16 16
19 19 19 19 19 18 18 18 18 18 18 19 19 19 20 19 19 19 19 19 18 18 18 18 17 17 17 17 17 17 16 16 16
19 19 19 18 18 18 18 18 17 18 18 18 19 19 19 19 19 19 19 19 19 18 18 18 18 18 17 17 17 16 16 16 16
19 19 19 19 18 18 18 18 18 18 18 18 19 19 19 19 19 19 19 19 19 18 18 17 17 17 17 17 17 17 17 17 16
20 19 19 19 19 18 18 18 18 18 18 18 18 19 19 19 19 19 19 19 19 19 19 17 17 16 16 16 17 17 17 17 17
20 20 20 19 19 19 19 18 18 18 18 18 18 18 19 19 19 19 19 19 19 19 19 19 17 17 17 17 17 17 17 17 17
19 19 20 20 20 20 19 19 18 18 18 18 18 19 19 19 19 19 19 19 19 19 19 19 19 18 17 17 17 17 17 17 17
19 20 20 20 20 20 19 19 18 18 18 18 19 19 19 19 19 19 19 19 19 19 19 19 19 19 18 17 17 17 17 17 17
19 20 20 20 20 20 19 19 18 18 18 18 18 19 19 19 19 19 19 19 19 19 19 19 19 19 19 19 18 17 17 17 17
19 19 20 20 19 19 19 18 18 18 18 17 18 18 19 19 19 19 19 19 19 19 19 19 19 19 19 19 19 18 18 17 18
18 19 19 19 19 19 19 19 19 18 17 16 17 16 17 18 19 19 19 19 19 19 19 19 19 19 19 19 19 18 18 18 18
17 17 19 19 20 18 18 18 17 17 17 16 15 15 17 18 19 19 18 19 18 18 18 18 19 19 19 19 19 18 18 18 17
17 18 18 18 18 18 18 18 18 17 18 18 17 14 14 13 18 18 18 18 18 18 18 18 18 18 18 18 18 18 18 17 17
16 16 17 18 18 17 18 19 18 19 17 15 17 17 17 14 15 17 18 18 17 18 18 18 17 17 17 17 17 17 16 16 17
16 15 16 17 17 16 17 18 18 18 18 16 16 15 15 14 14 16 16 16 17 17 17 17 17 16 15 15 15 15 17 17 16
Height
822 823 824 824 825 824 824 824 825 826 826 827 828 829 828 828 829 829 829 829 829 829 829 829 829 829 828 828 827 827 826 826 825
822 822 822 823 824 825 825 825 825 826 827 827 828 829 829 829 829 830 830 830 830 830 830 830 830 830 829 829 828 828 827 827 826
822 822 822 822 823 823 824 824 825 826 827 827 828 829 829 829 830 830 830 829 829 830 830 830 830 830 829 829 828 828 828 827 827
820 821 822 822 823 823 823 823 824 824 825 826 827 828 829 829 829 829 829 829 829 829 828 828 829 829 829 828 828 828 827 827 826
819 819 820 821 822 822 823 822 822 823 824 825 826 827 828 828 828 829 829 829 828 828 828 828 828 828 828 827 827 827 827 826 826
817 818 818 819 820 821 822 822 822 822 823 824 825 826 826 826 827 827 827 827 827 827 828 828 827 827 827 827 827 826 826 826 825
814 815 816 817 817 819 821 821 822 822 822 823 824 824 825 825 825 825 826 826 826 825 825 826 826 826 826 826 826 826 826 825 825
811 812 813 814 816 817 818 819 820 821 821 822 822 822 823 824 824 823 824 824 825 824 824 823 823 824 824 823 823 823 824 824 823
806 807 809 811 812 813 815 815 816 818 819 820 821 821 821 821 822 822 822 822 823 823 823 822 822 822 822 822 822 821 821 821 821
802 803 804 806 807 809 810 811 813 814 815 817 817 818 819 819 820 821 821 821 821 821 821 821 821 821 820 820 820 819 819 819 819
798 799 800 801 802 804 805 807 808 810 812 812 813 814 816 816 817 818 818 819 819 819 819 818 818 819 818 818 817 817 817 817 816
792 794 794 795 797 799 801 802 804 806 808 808 809 810 812 812 813 814 815 816 816 816 816 816 815 814 815 815 815 813 814 813 813
788 789 789 790 791 794 796 798 800 801 802 803 805 806 808 809 809 810 811 811 812 812 812 812 812 811 810 810 810 810 809 809 809
783 784 784 785 786 788 791 793 795 796 796 799 800 801 803 805 806 806 806 807 807 807 807 807 807 806 806 805 805 804 804 805 804
777 778 779 781 782 783 785 787 789 791 792 795 796 797 798 800 800 800 802 802 801 801 801 801 801 801 801 801 801 800 799 799 799
772 772 773 776 777 778 780 782 783 784 787 790 791 791 793 794 793 794 794 794 794 794 795 795 795 795 795 796 796 795 794 794 795
767 767 767 770 771 773 774 775 777 779 781 783 786 789 789 787 787 788 788 787 787 787 787 788 789 789 789 790 790 790 789 789 788
762 762 763 764 766 767 769 770 771 773 775 777 781 787 786 783 780 780 781 781 780 781 781 781 782 783 783 783 784 785 785 784 783
757 757 758 759 760 762 763 765 766 767 770 773 775 776 777 780 780 776 776 776 775 775 775 775 775 776 776 776 777 778 779 779 779
753 752 753 754 756 756 758 760 760 763 765 767 769 771 772 774 776 772 771 771 770 770 770 769 768 768 770 773 773 775 776 775 775
Wind_Speed
9 10 9 8 8 7 7 7 9 11 12 13 12 10 8 9 10 6 5 4 8 8 7 7 8 8 8 8 8 8 7 7 7
9 12 11 10 10 8 7 8 9 10 11 14 13 9 7 8 7 5 3 5 7 7 6 6 6 6 6 6 6 5 5 6 5
9 11 13 12 11 10 9 10 9 9 10 12 14 12 8 6 8 5 2 3 6 6 5 5 5 5 4 4 3 4 4 4 4
10 11 13 14 13 12 11 12 10 11 11 10 11 13 10 7 9 7 4 4 5 5 5 5 5 4 3 3 2 1 2 2 3
12 12 15 15 17 14 12 13 12 12 12 12 11 13 13 9 10 9 7 6 6 6 6 6 6 5 4 4 3 2 1 1 2
14 14 15 16 19 17 14 14 14 13 12 12 11 13 15 13 12 11 10 8 7 8 8 7 7 7 6 5 5 4 4 4 4
16 16 16 18 20 19 16 16 16 15 15 14 13 13 16 16 14 12 13 12 10 10 10 10 10 9 9 8 8 7 7 6 6
19 18 19 19 22 22 20 18 19 19 18 16 16 15 16 17 16 16 18 16 13 12 13 13 13 12 12 11 10 10 10 10 9
23 23 22 21 24 25 23 22 21 21 21 19 18 16 16 19 17 16 18 18 15 14 14 15 14 14 14 14 13 12 12 11 12
24 24 25 26 26 28 27 25 23 23 23 23 23 21 19 17 18 16 17 19 18 16 15 16 16 17 16 16 16 16 15 13 12
26 25 28 30 32 29 28 27 26 25 25 26 26 25 21 20 20 20 18 19 20 20 18 16 17 19 19 18 18 17 17 15 15
29 31 31 32 35 31 28 27 26 25 24 24 22 24 25 22 21 19 21 21 22 24 22 20 20 19 21 20 20 20 18 18 17
27 29 28 32 33 31 28 26 26 27 27 26 24 25 25 25 25 25 24 23 23 23 24 24 23 23 22 21 22 23 23 22 21
31 30 29 33 32 29 27 27 29 28 28 24 22 23 25 25 25 23 24 25 26 26 27 27 27 26 24 23 23 25 25 25 24
32 31 31 29 28 28 29 30 29 32 32 28 25 19 19 21 23 24 25 27 27 28 27 26 28 29 28 27 26 26 25 25 25
25 31 31 32 30 29 30 31 30 29 28 19 22 26 24 24 26 27 29 31 33 30 33 32 31 29 29 28 28 27 27 25 24
28 29 32 32 34 31 33 32 27 27 22 11 3 2 5 18 25 28 30 31 32 33 33 34 33 31 32 31 30 28 26 24 22
29 30 29 32 33 34 35 29 29 24 20 22 7 2 4 1 10 18 23 28 32 34 33 33 34 35 32 33 30 27 22 22 20
25 26 30 29 30 32 33 30 30 24 19 13 19 20 8 3 3 10 18 21 23 27 30 32 32 32 31 26 26 22 17 18 21
21 21 25 29 26 27 29 30 28 25 22 21 12 16 18 19 10 9 10 19 25 25 26 24 24 20 18 18 15 12 16 16 21
Wind_Direction
168 165 163 164 176 178 161 155 155 150 151 153 146 124 112 127 130 135 110 108 118 110 102 99 99 97 92 89 85 82 78 75 73
183 183 182 178 186 193 180 172 165 162 160 164 165 148 131 145 143 131 93 124 125 122 115 114 112 105 98 92 87 82 72 65 66
210 203 203 201 196 197 193 187 182 178 175 175 180 176 169 162 168 158 148 152 148 143 137 132 130 125 119 117 106 90 69 55 54
220 215 217 212 212 208 203 197 200 197 191 187 188 189 185 183 184 184 186 172 174 174 167 161 159 158 158 155 146 101 67 47 39
226 223 221 227 220 218 217 208 204 202 200 198 194 191 193 200 196 203 211 209 206 206 199 190 189 192 197 205 215 221 240 290 329
232 231 224 225 217 221 222 220 216 211 211 208 201 199 199 197 207 213 214 224 224 223 222 216 217 222 229 235 239 248 259 274 284
238 236 234 227 220 225 227 228 226 224 220 216 215 212 208 209 215 218 221 229 229 232 231 228 230 233 238 245 251 257 262 268 277
238 236 233 229 223 223 225 229 231 231 229 228 225 220 219 220 228 235 229 226 234 238 242 237 236 237 240 244 250 255 261 264 271
238 234 230 230 223 222 228 231 233 234 236 234 234 231 231 228 234 243 231 228 243 247 248 245 245 245 247 249 255 255 255 258 261
236 234 230 230 225 224 228 232 236 238 238 239 240 237 239 240 237 245 243 238 244 252 255 252 248 248 250 255 258 257 258 261 265
241 236 235 235 228 227 231 234 235 241 246 244 243 244 241 239 246 249 249 249 249 253 257 261 255 254 253 255 259 259 259 261 265
243 241 241 240 231 231 233 236 237 243 247 249 247 244 240 243 242 247 252 257 257 256 255 262 265 266 258 256 257 259 260 262 266
238 238 244 239 231 230 232 236 235 237 240 245 246 249 247 248 246 257 256 259 261 260 260 264 264 265 267 259 256 258 260 261 265
242 243 245 244 233 230 233 234 232 237 238 237 247 249 245 241 250 258 259 259 262 264 263 262 262 262 266 266 262 259 263 264 263
249 247 243 241 239 236 233 234 236 238 242 238 240 240 238 247 251 253 254 257 258 263 262 260 260 262 262 263 266 268 266 266 266
262 248 247 243 241 240 236 236 237 240 244 241 249 247 248 250 252 256 255 257 261 263 260 263 265 264 262 264 267 267 268 271 272
267 265 249 245 244 246 241 236 230 237 232 202 168 242 254 249 256 259 258 259 262 262 261 262 264 265 267 269 266 263 267 270 268
264 259 259 250 247 242 246 236 228 225 221 221 189 145 220 323 242 249 257 261 263 266 268 263 262 267 267 269 266 261 267 270 273
270 265 254 253 248 240 240 237 229 230 224 220 233 234 217 196 286 255 257 258 263 264 267 268 266 264 267 260 249 255 267 271 278
279 273 263 256 249 248 238 232 237 238 236 230 226 236 244 247 242 275 267 267 270 268 267 269 258 247 248 256 259 263 276 284 289